Wind_Speed
17 15 10 12 15 17 21 21 21 23 26 23 19 17 16 14 11 10 9 11 12 11 11 12 12 13 16 16 16 17 13 11 9 15 14 16 15 15 14 11 9 8 7
23 16 17 18 19 18 19 20 25 27 29 27 20 15 13 12 12 11 11 11 11 12 12 12 12 13 15 17 18 16 12 10 16 17 18 19 16 15 15 12 10 7 6
14 20 21 20 20 21 20 21 23 29 29 26 22 17 14 14 14 11 10 10 11 12 13 14 13 13 15 17 17 16 13 10 15 18 19 17 15 15 15 11 10 8 6
14 20 22 25 27 23 20 22 24 24 28 27 25 24 19 14 14 16 15 12 11 11 12 12 13 14 15 17 17 17 13 14 14 17 19 17 15 15 14 13 11 8 7
13 17 22 22 21 22 26 24 23 26 26 25 34 32 28 22 17 16 14 14 13 12 11 11 11 12 13 16 16 18 16 17 18 19 18 17 16 17 16 13 11 10 8
10 13 15 16 19 22 24 25 24 24 27 36 32 31 29 27 24 24 18 15 15 15 13 12 10 14 16 16 16 18 18 18 19 18 16 16 16 16 15 14 12 12 9
13 13 12 13 16 18 20 23 23 23 26 33 33 32 31 30 27 28 24 17 17 15 15 13 12 11 12 13 16 19 20 18 14 14 13 14 15 15 15 14 13 12 7
12 11 10 11 14 17 18 21 22 22 29 31 32 33 30 29 27 24 24 16 15 17 16 20 17 14 14 17 15 14 11 12 11 7 8 15 14 14 14 13 12 10 8
8 7 8 10 13 13 16 20 21 21 22 26 29 28 26 25 27 28 23 17 16 18 18 17 15 17 17 20 21 20 15 12 14 13 11 14 15 18 14 13 14 13 10
5 3 5 8 12 14 17 17 20 23 26 25 26 29 28 24 29 31 27 20 16 15 14 14 17 15 17 18 16 16 14 12 14 13 12 12 13 17 17 11 13 12 9
4 2 4 7 10 12 14 19 24 26 27 28 28 28 26 22 26 32 31 21 21 19 17 16 14 17 18 18 14 13 14 15 15 14 13 12 11 10 10 10 11 10 11
5 4 6 8 9 12 14 15 21 26 25 25 25 22 19 20 23 31 31 23 20 19 17 16 16 20 19 18 16 15 15 17 14 13 13 13 13 11 10 10 10 8 9
4 7 8 10 10 12 14 16 18 21 20 20 21 20 19 21 23 28 30 28 23 17 17 18 18 19 19 16 16 16 16 14 14 14 14 13 12 12 11 11 9 8 8
2 6 9 11 12 13 11 16 18 19 18 20 19 18 18 20 22 27 27 26 23 18 16 16 15 19 19 16 15 14 14 15 15 14 13 12 12 13 14 12 12 12 10
5 7 7 7 10 14 13 17 19 21 25 24 23 21 22 21 25 28 28 28 28 24 18 16 15 16 16 16 16 15 16 16 16 15 14 15 15 15 15 15 14 14 13
5 6 10 10 9 10 12 12 13 16 20 19 20 22 23 20 23 29 29 29 28 27 21 17 17 19 19 19 19 18 18 18 17 17 16 16 17 17 16 16 16 16 16
4 5 7 11 13 13 13 13 11 11 12 16 16 17 17 20 18 23 31 30 28 27 20 19 19 19 19 19 19 20 19 19 18 17 17 17 17 17 18 18 19 18 19
7 6 5 9 13 14 16 14 14 14 13 15 17 17 17 15 16 19 29 29 27 25 20 18 18 20 20 20 20 20 19 19 20 19 19 18 18 18 19 20 21 21 21
4 4 5 5 8 11 14 15 16 15 14 14 14 18 17 16 15 18 26 26 24 21 17 18 19 19 19 19 20 20 20 21 21 20 20 20 20 20 20 21 21 21 22
5 5 5 4 4 7 9 11 13 14 15 16 17 17 19 19 18 20 24 24 23 21 19 19 19 19 20 20 20 21 21 21 21 22 22 23 23 23 22 22 22 23 24
5 5 4 3 3 4 6 8 10 11 12 14 15 16 23 22 19 20 22 23 22 21 21 20 18 19 20 20 17 19 21 21 22 22 22 23 23 24 25 24 24 25 24
5 5 4 3 2 2 2 3 5 7 7 8 8 12 19 21 21 20 21 21 23 20 18 19 19 18 19 19 21 23 23 24 24 23 24 24 24 24 24 24 24 25 26
6 7 6 5 4 5 5 5 5 5 5 5 6 8 13 16 17 19 18 20 22 21 20 18 19 19 18 20 20 22 23 24 25 25 26 25 23 22 23 23 24 24 25
9 9 9 9 8 9 9 11 10 10 10 9 9 8 9 8 8 8 9 10 12 14 15 14 14 15 15 17 17 18 19 20 21 22 23 25 23 22 22 22 22 23 24
11 12 11 10 10 10 11 11 11 12 12 12 11 10 9 7 6 5 3 3 3 5 8 9 11 13 14 16 17 18 18 19 19 19 20 22 22 21 20 20 21 20 21
11 11 10 10 10 10 10 10 11 11 11 10 10 9 8 8 6 5 4 2 0 2 3 5 8 10 12 12 14 16 17 18 17 18 19 19 19 20 20 22 21 21 21
Wind_Direction
246 231 234 238 230 219 211 207 203 202 192 185 183 185 181 183 169 172 177 178 176 167 166 174 176 174 172 172 176 176 188 169 150 165 167 178 177 153 143 142 131 108 92
265 253 235 238 235 231 215 199 198 198 197 190 182 182 181 176 165 179 182 182 182 175 172 172 175 175 171 171 173 171 174 167 158 167 172 182 180 154 149 148 143 131 115
260 242 227 220 237 220 213 207 190 199 194 189 185 177 177 180 172 182 194 186 192 193 179 178 172 174 173 173 168 165 174 168 174 171 179 179 171 160 154 154 151 142 130
238 231 228 225 224 205 209 207 192 187 195 190 195 185 181 182 187 185 191 188 197 204 191 179 181 179 176 166 172 160 176 191 181 183 178 173 170 165 165 164 165 168 156
242 237 240 236 226 210 204 208 203 186 184 186 186 185 185 178 189 186 187 187 193 198 197 182 186 182 181 171 171 159 180 196 188 185 178 176 172 173 180 175 168 164 171
252 253 250 241 228 214 200 201 197 187 181 183 188 182 186 185 190 192 185 184 194 190 192 183 188 190 186 183 165 162 178 195 195 190 184 182 181 180 177 177 176 175 171
278 273 257 247 233 221 209 201 194 190 178 186 189 188 192 195 193 189 188 184 189 188 184 191 181 182 185 188 183 179 186 193 202 201 192 190 179 178 175 177 184 187 189
282 279 264 236 220 213 207 194 190 187 184 183 182 188 192 199 197 195 198 191 194 199 196 194 192 186 189 181 171 168 173 188 195 189 193 178 173 171 177 179 178 175 160
279 272 254 228 211 199 205 193 181 178 178 178 175 178 194 198 199 198 195 188 195 199 198 198 199 194 192 184 176 174 173 184 193 198 184 188 183 164 168 165 169 172 175
295 255 222 221 196 197 192 183 174 173 169 170 175 191 195 192 196 198 189 187 185 193 188 189 199 193 189 185 175 169 168 169 169 161 155 163 169 177 171 169 176 187 178
302 231 197 200 194 193 177 178 179 181 181 179 181 190 193 187 191 197 188 192 194 191 187 185 188 193 193 185 172 175 181 163 158 154 152 151 159 165 181 177 179 189 191
247 189 191 174 172 172 169 170 177 176 167 169 174 176 182 188 190 197 190 191 191 185 183 187 190 193 194 190 175 189 185 161 165 170 172 176 180 182 180 174 176 173 192
246 205 187 171 171 173 171 167 166 167 166 166 166 170 180 184 185 194 194 195 193 184 186 190 189 188 188 188 184 191 178 173 177 183 189 191 193 191 185 181 185 189 193
264 204 195 173 176 171 173 173 167 168 167 168 171 175 174 179 185 190 193 197 196 190 192 188 184 179 184 188 189 189 188 189 192 196 199 198 194 190 192 191 192 194 199
198 197 179 186 182 182 188 185 185 187 184 177 183 179 174 185 194 189 189 192 193 192 186 174 167 177 183 191 196 198 200 201 202 202 202 199 199 199 203 203 204 204 210
218 202 198 187 187 189 184 183 203 206 199 199 198 199 198 201 199 200 200 202 198 197 176 178 186 191 197 198 201 201 203 205 206 205 205 205 205 207 208 209 212 216 219
196 204 208 204 189 190 194 189 179 195 209 209 206 207 210 209 206 209 201 198 201 198 185 192 196 196 200 204 206 206 208 209 207 208 209 210 209 211 210 213 215 220 225
162 167 202 217 220 208 203 198 191 181 182 196 208 204 205 203 203 200 196 188 178 195 195 195 198 200 203 207 208 208 211 209 209 212 213 213 212 212 213 218 220 220 226
184 168 191 213 223 229 223 211 203 197 196 195 188 198 203 202 198 195 193 187 181 191 200 205 207 207 208 210 213 212 212 210 210 213 217 215 214 216 221 223 224 225 225
185 183 186 188 213 217 221 216 210 208 205 196 194 193 190 188 186 187 185 187 185 197 203 209 211 213 212 212 214 216 215 214 213 216 219 218 217 216 223 225 223 224 225
178 174 181 175 203 215 221 218 215 208 206 204 204 198 196 186 182 179 181 192 195 203 207 210 213 214 215 215 216 214 215 216 216 217 220 221 221 220 224 226 226 225 229
159 155 145 143 158 172 190 201 200 198 196 194 187 196 198 188 183 182 190 201 207 210 216 218 217 219 218 218 218 220 219 222 222 220 222 225 224 225 226 228 228 227 226
134 129 116 104 96 104 107 105 116 127 134 151 164 169 181 189 190 192 196 207 215 219 218 219 225 229 232 233 233 231 228 230 233 232 230 227 224 226 226 228 229 230 229
106 103 100 97 93 92 92 95 92 94 100 106 111 122 144 156 165 175 190 206 215 222 230 237 235 237 237 241 249 249 244 242 241 239 235 231 226 225 226 229 231 231 232
97 96 93 90 87 89 86 81 81 87 84 87 86 88 93 99 105 110 124 170 207 222 236 242 249 255 254 250 250 252 248 256 251 244 243 239 231 226 224 228 232 233 232
90 90 87 89 87 85 86 86 80 76 74 71 69 68 70 71 71 73 65 65 40 266 249 232 234 242 245 246 245 243 244 247 251 251 242 239 232 232 228 227 227 228 231
Height
738 740 743 748 750 749 749 751 752 757 764 769 774 778 779 784 782 786 789 793 795 795 797 802 804 806 809 812 817 822 825 823 829 842 849 859 862 852 851 856 857 859 860
735 733 736 741 745 747 748 749 751 755 760 763 768 774 777 780 780 787 791 793 796 796 798 801 805 807 806 809 814 817 823 826 831 843 850 858 857 849 849 853 856 858 860
732 733 733 734 739 742 746 748 747 752 756 758 761 767 775 780 778 788 792 793 797 800 797 800 802 806 807 809 810 813 821 828 835 838 850 852 851 845 848 852 855 858 860
723 726 728 729 726 731 739 743 742 743 749 753 759 762 770 777 783 787 790 792 797 800 800 798 803 804 806 805 811 809 820 832 835 840 845 845 844 843 846 849 853 856 859
720 721 722 723 725 726 728 735 737 734 740 751 757 762 766 771 779 784 787 790 795 798 801 800 805 805 806 806 808 805 820 830 834 838 838 838 838 840 842 846 849 853 857
715 714 714 716 718 721 723 727 732 734 739 744 751 755 762 768 773 778 784 786 792 796 799 799 803 803 807 810 805 806 818 828 831 831 832 832 834 837 840 843 846 850 854
710 709 708 710 713 715 718 721 724 728 732 737 743 752 757 765 771 776 778 786 790 793 796 800 801 805 807 811 807 810 818 823 828 829 828 829 831 834 837 841 844 847 849
706 705 705 707 709 712 714 716 719 724 727 733 740 748 754 762 768 772 778 784 787 791 795 799 800 803 807 807 809 813 818 824 826 828 828 828 830 834 837 840 842 846 850
702 703 704 705 706 709 712 714 716 722 727 732 737 744 751 757 765 772 778 782 787 791 793 796 800 802 802 806 808 811 816 820 822 824 825 826 829 832 836 839 841 845 848
701 701 702 704 705 708 711 715 717 721 725 730 734 742 750 757 763 769 776 781 784 789 792 795 798 798 801 805 808 810 816 818 819 822 824 825 829 831 834 838 840 842 845
701 701 702 704 706 709 711 713 716 719 723 730 738 744 749 756 761 766 772 776 780 786 789 792 794 796 800 805 808 810 814 815 818 822 824 827 830 833 834 835 838 841 843
700 701 703 704 706 709 711 714 717 720 725 731 737 744 749 755 758 762 768 773 777 781 784 788 791 794 799 802 805 808 810 813 818 821 824 826 829 831 833 834 836 839 840
701 701 703 704 706 709 712 714 718 721 725 730 735 741 747 751 755 759 765 770 775 780 782 785 787 791 797 801 804 805 808 812 815 818 821 823 826 829 831 833 835 837 838
701 703 703 704 706 709 712 714 716 719 723 728 733 738 743 748 752 756 761 767 772 776 780 784 786 790 795 799 802 804 807 809 812 815 818 821 823 826 828 830 833 835 837
700 702 704 706 708 709 711 713 714 717 719 723 728 732 737 742 745 750 755 760 766 771 777 781 785 789 792 796 799 801 804 807 809 811 814 817 819 822 824 827 829 831 833
700 701 701 705 707 709 711 712 715 717 720 723 726 729 734 738 742 747 752 757 762 767 773 777 781 785 787 790 793 796 799 802 804 807 810 812 814 817 820 822 825 826 827
698 700 702 704 704 706 709 711 713 716 719 722 725 728 731 734 738 743 748 753 758 763 768 772 775 778 782 785 788 791 794 796 800 802 805 807 809 812 814 816 818 820 822
696 697 699 701 703 703 706 708 710 712 715 718 722 725 729 732 736 740 745 750 755 760 763 766 770 773 776 779 782 785 788 791 794 797 799 801 803 806 808 809 811 813 815
696 696 697 699 701 702 703 705 707 710 712 715 718 723 726 730 734 737 742 745 749 755 759 762 765 768 771 774 776 779 782 785 787 790 793 795 797 799 801 802 804 806 808
696 697 697 699 700 701 702 704 706 707 709 711 715 717 722 727 731 734 737 741 745 750 754 757 760 763 765 768 770 772 776 778 781 783 785 787 788 791 792 794 796 798 799
696 696 697 698 699 700 701 702 703 705 707 709 711 714 717 721 726 730 734 737 741 745 748 752 754 757 759 762 765 766 769 771 773 775 777 779 780 782 783 785 787 789 791
696 697 698 699 700 700 701 701 702 704 705 707 709 712 715 719 722 726 730 734 737 741 744 746 749 751 753 755 757 759 761 762 764 766 768 770 771 773 775 777 779 780 781
696 697 698 699 699 701 702 702 703 704 705 707 709 711 714 718 721 724 727 730 733 736 738 741 743 745 746 748 750 752 753 754 755 758 759 761 763 765 767 768 770 771 772
697 697 699 700 702 703 703 705 706 707 708 710 711 713 715 718 721 723 726 728 730 733 735 736 738 740 742 743 744 746 747 748 750 751 752 753 755 757 759 760 762 763 764
700 701 702 704 705 706 707 708 709 710 712 713 714 716 717 719 721 723 725 727 728 730 732 733 735 736 737 738 739 740 741 742 743 745 746 747 748 749 751 753 754 756 757
703 705 706 707 708 709 710 711 713 714 715 717 718 719 721 722 723 725 726 727 728 729 730 731 731 732 733 734 734 735 736 737 738 739 740 741 742 743 744 745 746 748 749